Weather History for Corning, AR

Change the Weather History Date:

Saturday, May 19, 2012

  Actual Average (KARG) Record (KARG)
Temperature  
Mean Temperature 78 °F -  
Max Temperature 91 °F 77 °F 93 °F (1998)
Min Temperature 66 °F 58 °F 46 °F (2002)
Cooling Degree Days 14    
Growing Degree Days 28 (Base 50)    
Moisture  
Dew Point 60 °F    
Average Humidity 55    
Maximum Humidity 83    
Minimum Humidity 31    
Precipitation  
Precipitation 0.05 in - - ()
Sea Level Pressure  
Sea Level Pressure 30.01 in    
Wind  
Wind Speed 8 mph (SSE)    
Max Wind Speed 23 mph    
Max Gust Speed 28 mph    
Visibility 10 miles    
Events Rain    
Averages and records for this station are not official NWS values.
T = Trace of Precipitation, MM = Missing Value Source: NWS Daily Summary

Daily Weather History Graph

Daily Weather History Graph

Search for Another Location

Airport:

Trip Planner

Search our weather history database for the weather conditions in past years. The results will help you decide how hot, cold, wet, or windy it might be!

Date:

Astronomy

May. 19, 2012 Rise Set
Actual Time 5:52 AM CDT 8:06 PM CDT
Civil Twilight 5:23 AM CDT 8:35 PM CDT
Nautical Twilight 4:47 AM CDT 9:10 PM CDT
Astronomical Twilight 4:09 AM CDT 9:49 PM CDT
Moon 4:54 AM CDT (5/19) 7:11 PM CDT (5/19)
Length of Visible Light 15h 11m
Length of Day
14h 13m
Waning Crescent, 1% of the Moon is Illuminated
May 19
Waning Crescent
May 20
New
May 28
First Quarter
Jun 4
Full
Jun 11
Last Quarter

Hourly Weather History & Observations

Time (CDT) Temp. Heat Index Dew Point Humidity Pressure Visibility Wind Dir Wind Speed Gust Speed Precip Events Conditions
12:15 AM 73.4 °F - 59.0 °F 61% 29.96 in 10.0 mi SSE 6.9 mph - N/A   Clear
12:55 AM 71.6 °F - 59.0 °F 64% 29.96 in 10.0 mi SE 9.2 mph - N/A   Clear
1:15 AM 73.4 °F - 59.0 °F 61% 29.96 in 10.0 mi SSE 8.1 mph - N/A   Clear
1:35 AM 73.4 °F - 59.0 °F 61% 29.96 in 10.0 mi SSE 6.9 mph - N/A   Clear
1:55 AM 71.6 °F - 59.0 °F 64% 29.96 in 10.0 mi SSE 6.9 mph - N/A   Clear
2:15 AM 71.6 °F - 59.0 °F 64% 29.96 in 10.0 mi SSE 5.8 mph - N/A   Clear
2:35 AM 71.6 °F - 59.0 °F 64% 29.96 in 10.0 mi SSE 4.6 mph - N/A   Clear
2:55 AM 69.8 °F - 59.0 °F 68% 29.96 in 10.0 mi SSE 4.6 mph - N/A   Clear
3:15 AM 68.0 °F - 59.0 °F 73% 29.96 in 10.0 mi Calm Calm - N/A   Clear
3:35 AM 68.0 °F - 59.0 °F 73% 29.96 in 10.0 mi Calm Calm - N/A   Clear
3:55 AM 69.8 °F - 59.0 °F 68% 29.96 in 10.0 mi Calm Calm - N/A   Clear
4:15 AM 66.2 °F - 57.2 °F 73% 29.97 in 10.0 mi SE 4.6 mph - N/A   Clear
4:55 AM 66.2 °F - 59.0 °F 78% 29.97 in 10.0 mi ESE 5.8 mph - N/A   Clear
5:15 AM 66.2 °F - 59.0 °F 78% 29.98 in 10.0 mi SE 3.5 mph - N/A   Clear
5:35 AM 66.2 °F - 59.0 °F 78% 29.99 in 10.0 mi SE 5.8 mph - N/A   Clear
5:55 AM 66.2 °F - 59.0 °F 78% 30.00 in 10.0 mi SE 4.6 mph - N/A   Clear
6:15 AM 66.2 °F - 59.0 °F 78% 30.00 in 10.0 mi SE 5.8 mph - N/A   Clear
6:35 AM 68.0 °F - 60.8 °F 78% 30.01 in 10.0 mi SE 4.6 mph - N/A   Clear
6:55 AM 68.0 °F - 62.6 °F 83% 30.02 in 10.0 mi SE 4.6 mph - N/A   Clear
7:15 AM 69.8 °F - 62.6 °F 78% 30.03 in 9.0 mi SE 4.6 mph - N/A   Clear
7:35 AM 71.6 °F - 62.6 °F 73% 30.04 in - SSE 3.5 mph - N/A   Unknown
7:55 AM 73.4 °F - 62.6 °F 69% 30.04 in - SSE 5.8 mph - N/A   Unknown
8:15 AM 75.2 °F - 62.6 °F 65% 30.05 in - South 8.1 mph - N/A   Unknown
8:35 AM 77.0 °F - 62.6 °F 61% 30.05 in 10.0 mi South 8.1 mph - N/A   Unknown
8:55 AM 77.0 °F - 62.6 °F 61% 30.05 in 10.0 mi SSE 8.1 mph - N/A   Clear
9:15 AM 80.6 °F 81.8 °F 62.6 °F 54% 30.05 in 10.0 mi South 8.1 mph - N/A   Clear
9:35 AM 80.6 °F 81.8 °F 62.6 °F 54% 30.05 in 10.0 mi South 9.2 mph - N/A   Clear
9:55 AM 82.4 °F 83.4 °F 62.6 °F 51% 30.05 in 10.0 mi SSW 12.7 mph - N/A   Clear
10:15 AM 82.4 °F 83.4 °F 62.6 °F 51% 30.05 in 10.0 mi South 10.4 mph - N/A   Clear
10:35 AM 84.2 °F 85.0 °F 62.6 °F 48% 30.05 in 10.0 mi South 12.7 mph - N/A   Clear
10:55 AM 84.2 °F 85.0 °F 62.6 °F 48% 30.05 in 10.0 mi SSW 12.7 mph 17.3 mph N/A   Clear
11:15 AM 84.2 °F 85.0 °F 62.6 °F 48% 30.05 in 10.0 mi SSW 9.2 mph - N/A   Clear
11:55 AM 86.0 °F 86.1 °F 60.8 °F 43% 30.04 in 10.0 mi SW 8.1 mph 18.4 mph N/A Rain Light Rain
12:15 PM 86.0 °F 85.4 °F 59.0 °F 40% 30.04 in 10.0 mi SSW 11.5 mph 19.6 mph N/A Rain Light Rain
12:35 PM 87.8 °F 87.1 °F 59.0 °F 38% 30.04 in 10.0 mi SSW 12.7 mph 18.4 mph N/A Rain Light Rain
12:55 PM 87.8 °F 87.1 °F 59.0 °F 38% 30.04 in 8.0 mi South 10.4 mph - 0.01 in Rain Light Rain
1:15 PM 89.6 °F 89.5 °F 60.8 °F 38% 30.03 in 10.0 mi South 9.2 mph - N/A Rain Light Rain
1:35 PM 89.6 °F 89.5 °F 60.8 °F 38% 30.03 in 10.0 mi South 9.2 mph - N/A Rain Light Rain
1:55 PM 89.6 °F 88.9 °F 59.0 °F 36% 30.03 in 10.0 mi SSE 5.8 mph 16.1 mph 0.01 in Rain Light Rain
2:15 PM 89.6 °F 88.9 °F 59.0 °F 36% 30.02 in 10.0 mi SE 10.4 mph - N/A Rain Light Rain
2:35 PM 89.6 °F 88.9 °F 59.0 °F 36% 30.02 in 10.0 mi South 8.1 mph - N/A Rain Light Rain
2:55 PM 89.6 °F 88.9 °F 59.0 °F 36% 30.01 in 10.0 mi SSW 6.9 mph - 0.01 in Rain Light Rain
3:15 PM 89.6 °F 88.9 °F 59.0 °F 36% 30.01 in 10.0 mi SSW 6.9 mph - N/A Rain Light Rain
3:35 PM 91.4 °F 89.9 °F 57.2 °F 31% 30.00 in 10.0 mi SSW 10.4 mph - N/A Rain Light Rain
3:55 PM 91.4 °F 90.7 °F 59.0 °F 34% 29.99 in 10.0 mi South 10.4 mph - 0.01 in Rain Light Rain
4:15 PM 91.4 °F 89.9 °F 57.2 °F 31% 29.98 in 10.0 mi SSW 12.7 mph 16.1 mph N/A Rain Light Rain
5:15 PM 84.2 °F 83.8 °F 59.0 °F 42% 29.99 in 10.0 mi SE 23.0 mph 27.6 mph N/A Rain Light Rain
5:35 PM 84.2 °F 84.4 °F 60.8 °F 45% 29.99 in 10.0 mi SE 16.1 mph 23.0 mph N/A Rain Light Rain
5:55 PM 84.2 °F 84.4 °F 60.8 °F 45% 29.98 in 10.0 mi SE 17.3 mph - 0.01 in Rain Light Rain
6:15 PM 86.0 °F 86.1 °F 60.8 °F 43% 29.98 in 10.0 mi SE 17.3 mph 21.9 mph N/A Rain Light Rain
6:35 PM 86.0 °F 85.4 °F 59.0 °F 40% 29.98 in 10.0 mi SSE 13.8 mph - N/A Rain Light Rain
6:55 PM 84.2 °F 83.8 °F 59.0 °F 42% 29.98 in 10.0 mi SSE 11.5 mph 16.1 mph N/A Rain Light Rain
7:15 PM 84.2 °F 83.8 °F 59.0 °F 42% 29.98 in 10.0 mi SSE 10.4 mph - N/A Rain Light Rain
7:35 PM 82.4 °F 82.5 °F 59.0 °F 45% 29.98 in 9.0 mi SSE 9.2 mph - N/A Rain Light Rain
7:55 PM 82.4 °F 82.9 °F 60.8 °F 48% 29.98 in 10.0 mi SE 12.7 mph - N/A   Clear
8:15 PM 80.6 °F 81.5 °F 60.8 °F 51% 29.98 in 10.0 mi SE 12.7 mph - N/A   Clear
8:35 PM 80.6 °F 81.5 °F 60.8 °F 51% 29.98 in 10.0 mi SE 13.8 mph - N/A   Clear
8:55 PM 80.6 °F 81.5 °F 60.8 °F 51% 30.00 in 10.0 mi SE 11.5 mph - N/A   Clear
9:15 PM 80.6 °F 81.8 °F 62.6 °F 54% 30.00 in 10.0 mi SSE 9.2 mph - N/A   Clear
9:35 PM 78.8 °F - 62.6 °F 57% 30.01 in 10.0 mi SE 10.4 mph - N/A   Clear
9:55 PM 78.8 °F - 62.6 °F 57% 30.03 in 10.0 mi SSE 10.4 mph - N/A   Clear
10:15 PM 77.0 °F - 62.6 °F 61% 30.03 in 10.0 mi SE 9.2 mph - N/A   Clear
10:35 PM 77.0 °F - 62.6 °F 61% 30.03 in 10.0 mi SE 10.4 mph - N/A   Clear
10:55 PM 77.0 °F - 62.6 °F 61% 30.03 in 10.0 mi SSE 9.2 mph - N/A   Clear
11:15 PM 77.0 °F - 62.6 °F 61% 30.04 in 10.0 mi SSE 8.1 mph - N/A   Clear
11:35 PM 75.2 °F - 62.6 °F 65% 30.04 in 10.0 mi SSE 5.8 mph - N/A   Clear
11:55 PM 75.2 °F - 62.6 °F 65% 30.04 in 10.0 mi SE 6.9 mph - N/A   Clear